{"data":{"norad_id":66339,"intl_designator":"2025-253W","name":"STARLINK-35443","alt_names":[],"object_type":"PAYLOAD","status":"ACTIVE","operator":null,"country":"US","launch_date":"2025-11-06","launch_site_code":"AFETR","launch_vehicle":null,"mission":null,"orbit_class":"UNKNOWN","rcs_meters":null,"size_class":null,"mass_kg":null,"dimensions":null,"purposes":["comms"],"wikipedia_slug":null,"has_3d_model":false,"image_url":null,"decayed_at":null,"tle_current":{"epoch":"2026-09-20T12:49:57.446688Z","epoch_age_seconds":90441,"freshness":"FRESH","line1":"1 66339U 25253W   26263.53469267  .00012794  00000+0  47358-3 0  9997","line2":"2 66339  43.0008 192.1096 0000920 283.5260  76.5489 15.27585330 50046","mean_motion":15.2758533,"eccentricity":9.2e-5,"inclination_deg":43.0008,"raan_deg":192.1096,"arg_perigee_deg":283.526,"mean_anomaly_deg":76.5489,"bstar":0.00047358,"rev_number":5004,"period_min":94.266419801243,"perigee_km":482.40190849608,"apogee_km":483.66436380113,"semimajor_km":6861.1701361486,"source":"CELESTRAK","updated_at":"2026-09-21T09:00:35.877073Z"}}}